Flag for U.S.A. Weather past 2 weeks in Cocoa Beach, Florida, U.S.A.

Now
76 °F

Passing clouds.


Feels Like: 77 °F
Forecast: 76 / 83 °F
Wind: 9 mph from East

Location: Cocoa / Patrick Air Force Base

Current Time: May 30, 2015 at 6:35:37 AM

Latest Report: May 30, 2015 at 5:58 AM


Visibility: 10 mi

Pressure: 30.05 "Hg

Humidity: 87%

Dew point: 72 °F

Location of Cocoa BeachLocation

Historic Weather in Cocoa Beach — Graph

°F

Cocoa Beach temperature yesterday

Maximum temperature yesterday: 85 °F (at 1:58 PM)
Minimum temperature yesterday: 77 °F (at 5:58 AM)
Average temperature yesterday: 81 °F

Past Weeks' High & Low Weather Summary

 TemperatureHumidityPressure
High90 °F (May 21, 1:58 PM)92% (May 22, 6:58 AM)30.25 "Hg (May 22, 6:58 AM)
Low75 °F (May 21, 6:58 AM)45% (May 18, 4:58 PM)29.91 "Hg (May 20, 5:58 PM)
Average81 °F71%30.13 "Hg
* Reported May 15 5:58 AM — May 30 5:03 AM, Cocoa Beach, Weather by CustomWeather, © 2015

Note: Actual official high and low records may vary slightly from our data, if they occured in-between our weather recording intervals... More about our weather records

Advertising

Cocoa Beach weather history for previous 24 hours

 ConditionsComfort  
Time TempWeatherWind HumidityBarometerVisibility
5:03 AM
Sat, May 30
77 °FPassing clouds.7 mph83%30.04 "Hg10 mi
4:58 AM77 °FPassing clouds.9 mph80%30.05 "Hg9 mi
3:58 AM78 °FPassing clouds.9 mph79%30.03 "Hg10 mi
2:58 AM78 °FPassing clouds.9 mph78%30.04 "Hg10 mi
1:58 AM78 °FClear.9 mph75%30.05 "Hg10 mi
12:58 AM78 °FPassing clouds.12 mph74%30.07 "Hg10 mi
11:58 PM
Fri, May 29
79 °FPassing clouds.9 mph74%30.08 "Hg10 mi
10:58 PM79 °FClear.10 mph74%30.09 "Hg10 mi
9:58 PM79 °FClear.12 mph72%30.08 "Hg10 mi
8:58 PM79 °FPassing clouds.10 mph71%30.09 "Hg10 mi
7:58 PM80 °FPassing clouds.10 mph72%30.08 "Hg10 mi
6:58 PM82 °FSunny.13 mph66%30.07 "Hg10 mi
5:58 PM83 °FPassing clouds.14 mph62%30.08 "Hg10 mi
4:58 PM84 °FPassing clouds.14 mph63%30.09 "Hg10 mi
3:58 PM85 °FSunny.14 mph58%30.09 "Hg10 mi
2:58 PM84 °FScattered clouds.14 mph64%30.12 "Hg10 mi
1:58 PM85 °FPassing clouds.16 mph60%30.13 "Hg10 mi
12:58 PM85 °FScattered clouds.15 mph62%30.13 "Hg10 mi
11:58 AM85 °FScattered clouds.16 mph60%30.12 "Hg10 mi
10:58 AM84 °FBroken clouds.14 mph63%30.11 "Hg10 mi
9:58 AM82 °FSunny.13 mph67%30.11 "Hg10 mi
8:58 AM81 °FPassing clouds.13 mph63%30.10 "Hg10 mi
7:58 AM79 °FSunny.10 mph63%30.08 "Hg10 mi
6:58 AM77 °FClear.9 mph64%30.07 "Hg10 mi
Weather by CustomWeather, © 2015

See weather overviewHow to use our weather pages